Olympia, WA

5:00 AM PDT on August 30, 2016 (GMT -0700)
Olympia

Weather History for KOLM - November, 2013

Change the Weather History Date:

Saturday, November 23, 2013

  Actual Average Record
Temperature  
Mean Temperature 35 °F 42 °F  
Max Temperature 47 °F 48 °F 61 °F (1957)
Min Temperature 22 °F 35 °F 0 °F (1985)
Degree Days  
Heating Degree Days 30 23  
Month to date heating degree days 492 480  
Since 1 July heating degree days 1217 1274  
Cooling Degree Days 0 0  
Month to date cooling degree days 0 0  
Year to date cooling degree days 147 106  
Moisture  
Dew Point 28 °F    
Average Humidity 83    
Maximum Humidity 100    
Minimum Humidity 65    
Precipitation  
Precipitation 0.00 in 0.30 in 3.39 in (1986)
Month to date precipitation 4.51 6.53  
Year to date precipitation 39.26 40.44  
Sea Level Pressure  
Sea Level Pressure 30.31 in    
Wind  
Wind Speed 1 mph (NNE)    
Max Wind Speed 7 mph    
Max Gust Speed 10 mph    
Visibility 8 miles    
Events Fog    
T = Trace of Precipitation, MM = Missing Value Source: NWS Daily Summary

Daily Weather History Graph

Daily Weather History Graph

Search for Another Location

Airport or City:

Trip Planner

Search our weather history database for the weather conditions in past years. The results will help you decide how hot, cold, wet, or windy it might be!

Date:

Astronomy

Nov. 23, 2013 Rise Set
Actual Time 7:26 AM PST 4:29 PM PST
Civil Twilight 6:52 AM PST 5:03 PM PST
Nautical Twilight 6:15 AM PST 5:40 PM PST
Astronomical Twilight 5:38 AM PST 6:17 PM PST
Moon 10:12 PM PST (11/23) 11:38 AM PST (11/23)
Length of Visible Light 10h 10m
Length of Day
9h 02m
Waning Gibbous, 68% of the Moon is Illuminated
Nov 23
Waning Gibbous
Nov 25
Last Quarter
Dec 2
New
Dec 9
First Quarter
Dec 17
Full

Hourly Weather History & Observations

Time (PST) Temp. Windchill Dew Point Humidity Pressure Visibility Wind Dir Wind Speed Gust Speed Precip Events Conditions
12:54 AM 27.0 °F - 25.0 °F 92% 30.44 in 9.0 mi Calm Calm - N/A   Clear
1:54 AM 26.1 °F - 25.0 °F 96% 30.43 in 8.0 mi Calm Calm - N/A   Clear
2:54 AM 24.1 °F - 23.0 °F 96% 30.43 in 6.0 mi Calm Calm - N/A   Clear
3:54 AM 24.1 °F - 21.9 °F 91% 30.41 in 4.0 mi Calm Calm - N/A   Clear
4:54 AM 23.0 °F - 21.9 °F 96% 30.41 in 6.0 mi Calm Calm - N/A   Clear
5:54 AM 23.0 °F - 21.0 °F 92% 30.40 in 7.0 mi Calm Calm - N/A   Clear
6:54 AM 24.1 °F - 21.0 °F 88% 30.40 in 8.0 mi Calm Calm - N/A   Clear
7:54 AM 23.0 °F - 21.0 °F 92% 30.39 in 10.0 mi Calm Calm - N/A   Clear
8:54 AM 28.9 °F - 28.0 °F 96% 30.38 in 10.0 mi Calm Calm - N/A   Clear
9:54 AM 35.1 °F - 30.9 °F 85% 30.38 in 10.0 mi Calm Calm - N/A   Clear
10:54 AM 39.0 °F - 33.1 °F 79% 30.36 in 10.0 mi Calm Calm - N/A   Clear
11:54 AM 42.1 °F 40.2 °F 35.1 °F 76% 30.33 in 10.0 mi NE 3.5 mph - N/A   Clear
12:54 PM 44.1 °F 40.8 °F 35.1 °F 71% 30.30 in 10.0 mi North 5.8 mph - N/A   Clear
1:54 PM 46.0 °F 42.5 °F 36.0 °F 68% 30.27 in 10.0 mi North 6.9 mph - N/A   Clear
2:54 PM 45.0 °F 42.6 °F 35.1 °F 68% 30.25 in 10.0 mi NE 4.6 mph - N/A   Clear
3:54 PM 42.1 °F - 35.1 °F 76% 30.24 in 10.0 mi Calm Calm - N/A   Clear
4:54 PM 36.0 °F - 30.9 °F 82% 30.22 in 10.0 mi Calm Calm - N/A   Clear
5:54 PM 34.0 °F 29.8 °F 32.0 °F 92% 30.23 in 8.0 mi NNE 4.6 mph - N/A   Clear
6:54 PM 30.9 °F - 28.9 °F 92% 30.23 in 7.0 mi Calm Calm - N/A   Clear
7:54 PM 28.9 °F - 28.0 °F 96% 30.23 in 8.0 mi Calm Calm - N/A   Clear
8:54 PM 28.9 °F - 27.0 °F 92% 30.22 in 6.0 mi Calm Calm - N/A   Clear
9:54 PM 28.0 °F - 26.1 °F 92% 30.22 in 6.0 mi Calm Calm - N/A   Clear
10:41 PM 27.0 °F - 25.0 °F 92% 30.20 in 7.0 mi Calm Calm - N/A   Partly Cloudy
10:54 PM 28.0 °F - 25.0 °F 88% 30.22 in 7.0 mi Calm Calm - N/A   Partly Cloudy
11:28 PM 28.0 °F - 25.0 °F 88% 30.21 in 7.0 mi Calm Calm - N/A   Mostly Cloudy
11:51 PM 26.6 °F - 24.8 °F 93% 30.21 in 1.2 mi Calm Calm - N/A   Overcast
11:54 PM 28.0 °F - 26.1 °F 92% 30.22 in 0.5 mi Calm Calm - N/A Fog Light Freezing Fog